Temp
14 16 16 16 16 17 17 17 17 17 17 17 18 18 18 19 21 21 22 23 23 23 24 25 25 26 28 26 28 30 25 24 27 29 29 30 30 32 33 33 34 34 34 34 34
13 16 17 17 17 17 17 17 17 17 18 18 18 18 18 20 20 21 24 24 24 24 24 24 25 27 25 27 27 25 23 26 29 30 29 29 29 30 31 30 31 31 33 35 34
14 16 16 17 17 18 18 18 18 17 18 18 18 18 19 20 19 24 24 24 25 24 24 23 24 28 27 26 27 27 24 27 29 30 30 29 30 29 29 29 30 30 30 30 31
18 16 17 17 17 17 18 18 18 18 18 18 18 19 19 20 23 24 25 25 25 25 24 24 26 26 26 26 28 28 29 30 29 29 30 28 28 29 29 28 29 30 30 31 29
18 19 18 17 17 18 18 18 18 19 18 18 18 20 20 20 24 25 25 26 25 25 24 24 27 26 26 26 27 29 30 29 29 28 30 29 28 28 28 29 29 30 30 29 28
18 19 19 18 17 18 18 18 18 19 19 19 20 21 20 23 26 26 26 26 26 28 28 28 26 26 26 26 27 27 28 27 27 26 27 28 28 28 28 28 29 29 30 29 29
18 19 19 19 19 18 18 18 18 19 20 20 21 20 20 26 27 26 27 27 27 28 26 28 28 25 24 25 27 27 25 26 26 27 27 28 27 27 27 28 27 28 29 29 28
17 19 19 20 19 20 19 19 19 20 20 21 21 20 23 27 27 27 27 28 28 28 28 28 27 25 25 26 27 26 26 24 26 27 28 27 24 27 28 28 28 28 28 28 27
17 18 19 20 20 21 21 21 21 22 22 21 20 20 25 27 26 27 27 27 27 28 28 28 27 25 25 24 22 25 23 25 27 29 29 26 24 26 28 27 26 26 26 27 26
18 18 20 20 21 22 22 23 23 23 24 22 22 23 26 27 27 27 27 27 27 27 26 26 24 23 22 22 21 23 24 24 24 26 27 25 25 27 27 28 26 26 26 26 26
18 19 20 20 21 22 23 23 23 22 23 24 26 28 28 28 27 27 27 27 27 26 23 25 22 22 26 26 26 25 24 23 24 26 26 24 24 25 25 26 25 25 25 25 25
18 19 20 21 21 21 21 21 25 25 23 26 28 28 28 28 27 27 27 25 25 24 25 24 23 27 28 27 26 25 24 23 25 27 25 23 24 25 26 26 27 27 25 27 25
18 19 20 21 22 22 22 25 25 26 23 27 28 28 28 28 27 26 26 25 24 24 24 24 25 28 27 26 26 25 24 23 23 24 24 23 23 23 25 26 27 27 26 24 24
18 20 20 22 22 23 25 25 26 26 20 25 26 27 28 28 26 28 27 26 25 26 25 25 28 27 26 25 24 22 24 24 24 22 19 23 19 23 24 25 25 26 24 23 22
18 20 21 20 20 22 25 25 25 25 21 26 27 28 28 27 26 26 27 26 24 24 24 23 25 25 26 24 24 23 24 23 23 21 20 22 19 23 23 22 24 25 24 22 21
18 19 21 21 21 24 25 25 24 20 22 26 27 27 26 27 27 28 27 26 26 25 25 24 26 26 25 25 25 25 22 21 21 21 18 22 21 21 21 23 23 22 23 24 22
19 20 21 20 22 24 24 23 20 21 28 26 26 28 27 26 27 27 25 25 22 20 20 22 25 25 25 24 24 22 18 16 16 17 18 22 21 22 21 20 21 21 21 21 19
19 20 21 22 23 23 24 20 21 26 26 27 27 27 26 26 26 26 25 23 23 22 19 20 22 24 25 23 22 21 20 16 18 16 19 21 19 21 21 20 20 20 20 21 20
20 21 20 23 23 23 19 20 22 24 25 25 26 26 26 25 25 26 24 24 23 21 19 18 21 23 24 24 22 22 19 22 19 19 17 19 22 22 21 21 20 20 21 19 20
17 19 23 24 24 23 19 22 24 25 24 25 23 25 23 24 23 23 23 24 24 23 21 20 16 22 24 23 23 21 21 17 16 15 16 19 19 19 21 20 19 19 17 17 19
17 19 25 25 24 20 19 24 25 25 24 23 22 22 22 22 22 22 23 24 23 22 20 20 17 18 20 21 20 19 18 19 18 18 14 14 17 21 19 19 20 18 18 18 17
15 20 25 25 20 20 21 24 21 25 25 24 24 23 22 21 21 21 21 22 22 22 20 19 17 15 18 20 21 20 19 19 13 15 13 13 17 20 20 19 20 19 19 18 18
14 19 26 26 19 18 21 23 25 24 23 23 22 22 21 20 18 21 21 23 22 21 20 18 14 11 14 18 20 19 19 18 17 13 15 13 16 21 20 20 18 16 17 17 16
15 19 18 18 19 19 20 22 22 24 24 23 22 22 20 20 20 19 20 21 22 21 19 18 14 13 13 16 16 16 18 19 16 11 16 16 17 19 19 16 16 15 15 14 14
17 17 17 16 17 19 20 21 21 22 22 21 21 21 19 15 17 18 19 20 20 20 17 15 13 15 16 17 17 17 18 18 16 16 15 17 18 20 17 17 17 14 14 14 14
14 13 14 15 17 19 19 21 21 21 20 19 19 20 19 17 17 14 16 16 16 18 16 15 15 16 16 18 18 17 18 18 18 18 17 18 18 16 16 15 14 12 12 12 12
14 15 14 15 18 18 18 19 20 20 20 20 18 17 17 16 16 16 15 15 15 15 14 14 13 10 13 17 16 14 15 16 18 18 17 14 15 13 12 13 12 10 11 11 11
Height
789 787 785 783 781 780 778 777 776 775 774 774 773 772 771 770 770 770 768 769 768 767 767 766 765 765 765 766 761 758 792 802 786 776 768 750 753 738 733 738 735 735 736 737 737
789 787 785 783 781 780 778 776 775 774 773 773 773 772 772 771 770 769 768 767 767 767 766 766 765 762 768 764 763 773 796 784 762 759 762 756 756 751 750 751 749 743 734 734 736
790 788 786 783 781 779 776 774 774 773 772 772 771 772 772 772 772 768 766 766 766 766 765 764 761 758 767 762 761 764 785 764 757 753 750 755 755 750 757 762 751 751 743 737 739
790 788 786 783 780 777 775 773 771 771 771 771 771 772 772 774 782 767 766 765 765 765 765 761 758 765 769 772 754 768 755 752 751 747 749 756 752 757 754 755 743 741 739 737 739
790 787 785 783 779 776 774 772 771 771 771 771 772 773 774 774 769 767 766 765 764 763 762 762 759 762 771 766 757 756 752 750 748 749 745 746 755 755 753 742 738 737 738 739 740
790 787 784 782 779 777 775 772 771 771 771 771 772 773 774 777 765 766 765 763 763 761 757 756 761 758 762 762 763 754 753 755 752 752 751 755 754 752 748 739 739 737 737 737 738
791 787 784 781 779 777 775 773 771 771 771 772 772 773 774 768 764 765 763 763 763 761 760 759 759 764 764 766 753 756 769 762 753 749 753 748 763 760 744 738 740 740 737 736 737
793 788 784 781 779 777 775 774 772 772 772 772 773 774 771 764 763 764 763 762 761 761 762 762 762 762 763 756 759 767 768 784 750 739 745 750 780 752 737 737 740 737 735 732 732
794 789 786 781 779 777 775 774 772 772 772 772 773 773 771 763 764 763 764 763 761 761 760 759 760 764 760 773 785 771 789 777 765 741 745 756 770 746 733 734 738 736 733 730 729
794 790 786 783 780 778 776 775 773 772 772 771 771 778 765 764 763 764 763 763 763 760 760 760 766 775 775 783 807 791 787 782 780 757 751 760 756 742 734 733 734 731 728 727 725
793 790 787 784 781 780 778 777 778 778 773 772 766 762 760 762 763 762 762 761 759 762 778 761 781 788 768 764 766 771 779 784 771 756 759 764 761 750 740 735 734 730 729 726 722
792 788 785 783 782 780 780 780 773 774 778 763 762 761 762 762 764 761 762 766 765 778 764 771 783 759 755 757 765 772 781 783 766 753 758 764 757 745 738 732 727 723 724 719 720
791 786 783 782 780 779 776 775 773 771 777 764 759 761 762 761 763 765 764 766 770 775 771 777 767 751 758 765 771 772 779 782 781 765 761 767 765 754 735 728 719 714 712 716 721
789 784 782 780 781 777 776 774 772 771 795 776 769 764 760 759 769 761 763 768 768 770 765 767 752 757 765 772 773 789 770 771 773 783 801 767 798 751 743 733 725 713 718 720 726
787 782 782 781 780 776 775 773 772 772 813 770 765 758 757 764 764 765 760 763 776 774 774 778 766 766 769 774 770 783 766 771 771 778 784 769 791 747 743 748 744 734 731 732 729
785 783 781 781 780 776 774 774 774 800 806 774 760 763 764 761 761 759 759 759 758 768 767 769 751 755 762 764 765 762 772 773 768 774 801 769 775 769 759 751 746 748 744 741 735
785 783 782 782 779 776 775 774 802 808 755 774 771 761 766 768 766 765 770 772 786 798 796 776 757 755 756 771 764 775 793 818 815 808 803 762 776 762 755 750 745 744 749 749 745
785 783 782 780 778 777 776 789 804 772 773 761 765 764 771 767 769 768 772 781 776 783 800 800 791 765 762 770 779 781 788 821 816 819 794 770 785 767 748 745 745 746 746 746 743
785 783 781 778 777 778 784 803 794 782 776 777 768 771 768 770 771 770 774 777 777 783 806 808 790 766 763 760 772 781 798 776 797 792 803 781 759 751 745 745 744 747 743 744 745
786 784 781 779 778 778 791 791 781 774 777 776 788 776 789 780 782 784 781 772 777 779 784 795 814 779 766 764 765 776 772 802 805 824 813 781 778 773 754 753 751 751 753 749 744
786 787 779 778 778 784 801 783 776 773 778 787 791 793 791 790 788 791 784 777 776 781 785 791 805 797 784 780 782 784 787 780 785 792 815 807 782 743 748 750 748 749 747 746 742
793 794 778 777 791 786 793 780 782 776 774 779 782 785 790 790 793 794 791 785 779 782 793 793 802 811 795 772 765 771 777 779 812 807 806 806 766 744 744 746 743 746 744 741 739
804 790 777 775 804 804 790 782 774 781 784 786 790 786 788 795 808 791 787 775 777 782 788 792 812 831 808 777 764 774 773 777 785 799 795 807 773 737 738 737 742 747 742 738 738
808 803 791 787 793 801 801 793 791 777 782 783 789 788 792 793 791 797 791 781 777 778 780 786 806 813 816 797 791 791 777 774 784 814 784 772 757 748 739 744 742 742 741 741 741
807 813 815 814 806 802 799 795 794 792 786 788 792 793 798 815 803 798 790 785 781 778 785 792 805 795 786 781 779 776 772 770 778 773 784 755 754 740 741 740 737 742 741 740 739
825 829 822 820 807 803 797 796 797 796 799 800 799 795 797 806 804 811 800 798 796 785 789 787 789 785 776 769 767 766 762 761 757 756 756 748 742 738 736 740 743 743 741 739 735
834 832 827 818 809 805 806 802 799 797 794 793 797 801 801 802 798 796 795 794 791 792 790 795 795 810 779 772 770 772 763 757 748 744 743 758 746 746 747 744 743 744 741 738 732
Wind_Speed
17 13 12 12 11 10 9 7 5 4 5 5 6 8 9 7 3 5 2 2 3 3 4 6 10 17 15 5 7 2 1 4 7 8 9 9 10 9 5 6 4 4 4 3 12
18 14 12 12 12 12 10 8 7 6 6 6 7 8 8 6 8 7 2 1 2 2 4 8 9 12 3 4 4 5 4 7 7 5 5 6 9 8 6 8 6 6 9 7 10
19 15 14 13 14 15 13 8 7 6 5 5 7 7 4 5 3 2 1 1 2 5 10 16 21 5 6 6 6 6 7 9 10 5 5 5 6 7 7 5 6 4 7 8 9
18 17 16 17 17 14 12 8 4 4 4 4 6 6 4 3 3 2 2 3 4 8 12 11 8 5 5 7 10 7 9 5 9 9 3 5 6 6 6 7 8 9 7 5 7
17 17 17 19 15 10 11 9 5 1 1 3 5 3 1 3 1 4 2 6 11 13 18 9 5 3 3 6 8 6 2 6 11 9 4 5 7 7 7 9 9 9 6 5 7
20 17 19 20 15 10 12 9 5 3 2 2 1 1 2 1 7 2 5 10 11 13 14 9 6 8 5 6 5 7 7 7 9 11 6 6 7 6 10 9 11 8 5 6 6
21 18 18 19 16 11 10 9 5 3 2 2 2 3 3 2 1 7 7 5 5 9 7 14 13 8 9 9 6 7 7 9 14 9 10 6 4 7 12 10 10 9 4 4 5
23 18 19 18 16 12 10 8 4 3 3 0 2 1 3 4 1 7 8 10 7 5 1 6 6 6 3 7 5 4 4 2 10 11 6 8 7 12 10 5 7 8 8 8 9
25 18 19 17 15 13 12 9 3 0 2 4 4 4 3 3 2 5 3 11 15 7 9 9 5 4 6 5 5 3 3 4 7 2 3 4 7 11 9 9 10 9 9 9 9
26 19 16 15 13 12 10 10 7 6 4 6 12 5 4 3 5 4 2 3 4 7 7 7 3 3 4 1 3 6 6 8 8 9 11 9 10 9 8 7 9 8 8 9 9
27 21 14 13 9 9 8 5 5 3 4 7 5 1 4 7 2 8 5 11 8 6 6 5 3 6 3 6 5 6 6 8 9 10 7 9 8 9 10 12 11 9 9 10 9
29 22 14 13 7 8 9 3 8 8 5 11 0 3 1 4 4 6 10 6 6 6 8 5 6 3 6 5 4 6 9 9 7 8 10 10 17 16 17 17 18 17 9 4 7
30 22 13 11 8 11 12 4 8 12 2 6 3 1 2 6 3 6 7 7 7 9 10 4 5 6 4 5 7 5 5 7 8 10 9 10 12 10 18 18 13 5 9 9 10
31 18 10 10 8 9 2 9 7 4 2 7 5 3 4 2 3 3 3 2 4 4 7 5 4 4 6 7 8 5 10 11 10 8 4 4 7 18 10 14 11 4 9 9 10
29 13 5 9 12 8 8 7 9 2 1 5 4 5 5 3 2 6 8 2 7 7 5 7 7 6 2 4 7 6 8 8 12 12 6 15 3 9 8 8 15 11 9 10 10
21 9 5 4 11 11 11 5 3 2 2 3 5 6 4 8 7 1 3 6 6 4 9 10 9 6 3 3 5 7 8 10 9 5 2 6 1 5 5 2 4 17 22 12 8
15 4 4 7 5 12 8 4 2 2 5 5 3 4 3 2 4 3 6 2 3 5 6 8 1 6 8 3 4 9 7 5 5 4 5 14 8 2 9 12 8 8 9 10 9
13 4 4 8 9 10 9 2 2 12 12 6 9 9 5 2 3 2 5 3 6 6 3 4 2 7 11 5 3 4 1 3 4 4 11 8 5 3 9 10 8 6 4 8 10
15 7 7 6 3 5 3 1 3 6 8 8 11 5 2 6 4 3 4 3 4 6 3 4 5 18 12 6 5 2 2 2 2 5 5 4 5 3 6 8 6 4 5 6 7
15 6 6 4 3 2 1 4 5 8 7 7 4 8 7 9 7 8 6 4 4 6 7 4 6 8 9 6 6 6 5 1 2 3 5 4 8 10 3 8 7 3 6 8 4
5 2 3 3 2 2 1 3 7 9 6 5 7 6 8 7 8 8 5 7 5 4 7 4 5 6 10 4 7 6 6 4 3 5 5 4 5 4 11 5 0 4 4 7 8
10 2 1 1 2 2 1 1 1 6 3 1 2 4 5 7 4 6 7 4 5 3 2 3 3 5 10 22 20 13 10 1 4 6 3 3 16 10 9 8 13 3 4 5 5
5 3 5 4 3 5 10 9 3 2 6 6 6 6 8 6 4 4 5 9 4 7 4 4 2 5 10 6 3 3 7 9 5 1 8 5 10 11 21 23 8 7 6 4 5
3 4 5 4 4 6 6 5 9 2 1 4 6 6 6 4 5 6 11 7 14 7 10 7 6 8 10 9 10 15 16 14 4 3 13 17 25 19 22 6 6 7 8 10 11
2 3 4 4 5 7 6 7 9 6 8 9 5 10 8 1 5 6 8 10 14 15 6 6 7 10 17 18 18 19 18 15 15 19 16 27 23 15 3 4 4 6 10 14 16
4 4 5 7 8 8 6 4 9 11 8 7 5 8 7 6 4 6 9 6 6 5 7 3 10 9 20 18 17 21 20 19 19 20 22 21 17 6 6 5 5 8 13 18 18
13 13 2 6 6 6 5 8 8 7 5 10 10 7 7 8 8 7 8 9 12 15 17 10 9 4 21 10 13 15 10 14 16 16 7 4 4 9 8 11 10 12 16 16 16
Wind_Direction
8 17 19 18 14 11 9 8 357 326 300 290 291 292 305 305 304 304 236 215 244 275 297 288 276 247 246 247 263 286 355 242 247 258 278 10 9 1 18 22 32 11 329 178 139
9 14 11 4 2 357 345 327 328 327 312 296 291 292 313 315 318 275 195 83 164 283 313 272 272 229 228 239 242 138 167 239 251 336 338 16 7 348 14 344 334 338 325 334 348
18 20 10 0 354 349 344 330 294 298 309 302 290 301 308 331 287 113 147 170 188 282 298 297 284 302 223 237 252 228 209 249 284 299 355 349 332 343 350 323 296 318 328 357 4
15 14 12 2 351 349 1 358 315 274 292 289 283 303 320 326 64 159 127 143 304 289 288 276 256 251 237 249 231 220 245 277 291 304 15 327 322 318 303 269 289 314 304 329 341
6 7 6 6 5 12 6 358 9 339 282 297 327 338 275 249 114 147 194 302 294 277 254 246 309 319 314 317 330 170 256 281 284 321 297 292 278 265 269 281 283 272 298 346 340
3 1 4 9 22 22 10 9 5 8 0 13 44 22 312 243 145 162 301 295 275 336 339 44 2 330 298 292 342 309 317 314 312 299 298 306 298 357 296 289 298 304 254 252 235
4 359 358 5 11 11 6 11 9 18 54 91 82 10 296 164 20 194 265 313 2 340 342 21 5 7 333 323 346 334 337 316 271 243 233 210 317 269 260 278 244 265 295 273 270
3 357 355 354 1 1 359 6 27 89 112 138 324 358 262 285 252 260 344 295 210 221 332 332 347 282 239 267 320 244 260 241 272 217 205 116 252 262 269 304 304 278 251 228 235
2 354 353 348 349 353 354 355 5 209 231 273 301 180 242 146 209 6 0 344 346 323 246 247 289 238 310 219 314 241 235 326 335 73 39 138 251 242 246 252 264 264 259 248 235
359 352 351 348 339 345 350 347 329 306 291 282 271 300 244 90 80 308 347 274 270 299 313 212 229 238 305 35 301 339 349 330 317 312 326 310 296 302 276 265 270 267 278 268 240
355 351 342 345 327 328 336 352 337 319 255 236 340 276 78 53 132 233 5 282 245 248 259 274 175 242 291 58 9 339 329 314 296 279 287 285 299 310 311 302 288 279 261 270 259
352 346 336 336 312 293 298 266 318 294 304 230 299 171 114 241 236 97 11 347 359 259 288 320 238 279 36 359 337 298 280 277 276 333 341 328 305 297 283 277 279 274 237 124 66
350 344 329 334 312 279 236 348 314 330 273 187 173 3 318 272 4 50 12 332 290 272 271 271 284 58 20 338 303 301 324 340 322 328 321 312 298 300 301 298 286 244 147 97 90
347 344 330 332 319 304 345 346 307 47 325 148 198 124 219 180 185 110 48 296 295 302 359 283 241 26 5 353 32 357 343 329 316 329 283 10 292 297 272 282 322 202 98 95 64
347 342 326 329 313 338 342 338 355 72 40 202 81 150 207 213 203 190 154 275 276 336 339 276 333 348 267 45 16 259 283 273 271 269 290 283 215 273 43 3 344 15 49 71 75
348 341 327 352 310 308 354 340 302 53 210 135 142 211 208 207 149 141 220 189 230 256 256 260 272 258 96 38 291 301 348 318 272 240 264 275 287 309 54 100 21 17 11 37 48
353 340 296 306 274 351 323 302 3 230 184 87 34 339 39 9 346 134 314 354 63 4 3 303 323 116 110 15 321 21 1 336 348 354 220 359 349 331 86 72 87 66 21 21 17
346 314 245 262 318 333 317 2 270 34 31 22 350 310 203 87 64 358 271 146 78 56 318 347 3 38 3 333 53 299 270 161 283 323 293 308 236 232 116 110 92 91 56 11 8
343 338 281 294 30 333 37 297 37 19 9 343 320 257 68 125 200 308 347 297 87 74 61 341 269 338 330 80 99 4 327 228 313 278 298 246 303 332 85 46 99 91 44 34 347
343 322 268 10 343 316 21 275 98 58 4 355 320 20 2 348 10 7 331 91 98 103 113 328 312 289 320 353 200 180 226 37 345 316 280 277 313 254 156 19 99 64 13 314 319
354 314 81 15 351 18 252 40 62 97 56 354 9 342 342 340 4 346 293 60 73 74 47 333 196 284 336 263 282 331 322 302 182 178 216 304 255 310 336 41 120 187 224 280 291
330 345 52 61 31 233 18 100 292 23 11 359 348 299 342 15 330 332 328 1 70 79 267 85 253 281 268 274 269 252 253 101 96 297 262 262 274 281 272 314 312 196 303 301 327
320 278 29 353 53 347 357 345 185 37 30 1 328 348 3 345 342 270 293 309 220 179 185 145 306 335 325 326 358 51 337 336 297 134 259 254 263 329 313 292 336 345 315 310 355
307 342 352 14 74 33 349 330 348 140 132 44 341 317 286 288 330 297 313 319 312 348 145 125 192 180 237 246 296 290 294 293 276 260 288 260 279 287 279 306 339 315 355 5 343
358 26 3 331 340 332 309 288 288 10 24 23 346 341 354 336 328 287 298 312 325 312 167 156 222 223 238 251 253 262 275 279 276 270 259 278 275 281 136 352 322 32 355 344 326
36 15 344 296 302 298 291 46 16 359 8 322 307 323 348 328 292 298 342 338 261 310 298 233 265 272 262 255 268 274 271 275 274 280 276 283 284 17 15 50 26 1 342 325 314
4 334 271 282 297 300 11 343 333 344 314 349 342 335 314 349 340 313 285 269 261 270 268 267 276 324 276 280 285 276 249 255 264 288 274 272 326 27 360 342 334 338 322 302 300